Tracking 28790 objects as of 19-Apr-2024
HD Live streaming from Space Station
objects crossing your sky now

THORAD AGENA D DEB

Track THORAD AGENA D DEB now!
10-day predictions


NORAD ID: 4205
Int'l Code: 1969-082BU
Perigee: 759.2 km
Apogee: 854.7 km
Inclination: 70.1 °
Period: 100.9 minutes
Semi major axis: 7177 km
RCS: 0.0519 m2 (small)
Launch date: September 30, 1969
Source: United States (US)
Launch site: AIR FORCE WESTERN TEST RANGE (AFWTR)

Note: This is SATELLITE DEBRIS
Your satellite tracking list
Your tracking list is empty




NASA's NSSDC Master Catalog

Two Line Element Set (TLE):
1 04205U 69082BU  24109.37400965  .00001363  00000-0  56307-3 0  9993
2 04205  70.0579  99.6012 0066510 179.1022 181.0233 14.27577922988692
Source of the keplerian elements: AFSPC